Home   Weather   Quesnel   Past weeks

Flag for Canada Past Weather in Quesnel, British Columbia, Canada — Yesterday and Last 2 Weeks

Now
36 °F

Mostly cloudy.


Feels Like: 28 °F
Forecast: 30 / 38 °F
Wind: 10 mph from Southeast

Location: Quesnel Airport

Current Time: Dec 2, 2016 at 10:23:45 am

Latest Report: Dec 2, 2016 at 10:00 am


Visibility: 9 mi

Pressure: 29.87 "Hg

Humidity: 81%

Dew Point: 30 °F

Location of QuesnelLocation

Past Weather in Quesnel — Graph

°F

Quesnel Temperature Yesterday

Maximum temperature yesterday: 32 °F (at 12:00 am)
Minimum temperature yesterday: 27 °F (at 8:58 am)
Average temperature yesterday: 30 °F

High & Low Weather Summary for the Past Weeks

 TemperatureHumidityPressure
High45 °F (Nov 22, 2:00 pm)100% (Nov 17, 8:00 pm)30.31 "Hg (Nov 17, 8:00 pm)
Low21 °F (Nov 18, 9:00 am)49% (Nov 24, 6:00 am)29.48 "Hg (Nov 27, 9:00 pm)
Average33 °F92%29.85 "Hg
* Reported Nov 17 9:00 am — Dec 2 9:00 am, Quesnel, Weather by CustomWeather, © 2016

Note: Actual official high and low records may vary slightly from our data, if they occured in-between our weather recording intervals... More about our weather records

Advertising

Quesnel Weather History for the Previous 24 Hours

Scroll right to see more
 ConditionsComfort  
Time TempWeatherWind HumidityBarometerVisibility
9:00 am
Fri, Dec 2
34 °FMostly cloudy.12 mph87%29.88 "Hg9 mi
8:00 am34 °FPassing clouds.10 mph87%29.88 "Hg9 mi
7:00 am32 °FPassing clouds.14 mph93%29.88 "Hg9 mi
6:01 am32 °FLight snow. Mostly cloudy.13 mph93%29.93 "Hg1 mi
5:03 am30 °FLight snow. Mostly cloudy.10 mph100%29.99 "Hg1 mi
4:04 am32 °FLight snow. Overcast.10 mph87%30.03 "Hg2 mi
4:01 am32 °FLight snow. Overcast.10 mph80%30.03 "Hg2 mi
3:00 am32 °FMostly cloudy.12 mph80%30.05 "Hg9 mi
2:00 am32 °FPassing clouds.10 mph80%30.07 "Hg9 mi
1:00 am32 °FPassing clouds.10 mph80%30.11 "Hg9 mi
12:00 am32 °FPassing clouds.9 mph80%30.13 "Hg9 mi
11:00 pm
Thu, Dec 1
32 °FPassing clouds.9 mph80%30.15 "Hg9 mi
10:00 pm32 °FPassing clouds.9 mph87%30.16 "Hg9 mi
9:00 pm30 °FMostly cloudy.6 mph93%30.18 "Hg9 mi
8:00 pm28 °FPassing clouds.No wind93%30.20 "Hg9 mi
7:00 pm32 °FOvercast.5 mph87%30.21 "Hg9 mi
6:00 pm32 °FOvercast.7 mph87%30.21 "Hg9 mi
5:00 pm32 °FOvercast.3 mph87%30.21 "Hg9 mi
4:00 pm32 °FOvercast.7 mph80%30.21 "Hg9 mi
3:00 pm32 °FPartly sunny.6 mph87%30.20 "Hg9 mi
2:00 pm32 °FSunny.3 mph87%30.20 "Hg9 mi
1:00 pm30 °FScattered clouds.3 mph86%30.20 "Hg9 mi
12:00 pm28 °FSunny.6 mph93%30.21 "Hg9 mi
11:00 am28 °FLow clouds.6 mph93%30.22 "Hg9 mi
10:50 am28 °FLow clouds.5 mph93%30.21 "Hg9 mi
10:00 am27 °FLow clouds.3 mph100%30.21 "Hg9 mi
Weather by CustomWeather, © 2016

See weather overviewHow to use our weather pages